Helicity
93 49 41 59 89 98 219 172 147 137 139 174 163 126 104 106 96 82 72 69 64 60 90 118 107 123 180 230 290 265 255 360 434 448 443 226 27 14 62 38 57 64 68
54 42 55 66 76 103 168 109 97 126 130 126 93 92 101 93 81 71 73 64 51 75 104 110 126 140 212 266 323 284 315 327 337 433 427 295 110 33 47 64 73 77 102
40 38 59 65 104 152 138 154 154 201 165 93 79 85 94 96 82 71 70 49 47 82 94 111 123 147 320 343 339 280 317 406 393 439 440 380 373 92 89 93 100 103 118
27 28 37 70 91 158 178 156 164 131 116 89 60 73 104 85 51 36 30 52 55 88 110 120 134 137 209 393 414 292 366 411 512 328 363 293 238 79 36 99 138 154 139
32 19 30 37 70 155 149 147 148 143 113 135 151 87 83 112 80 22 -21 29 74 78 93 155 121 196 208 198 363 581 395 449 355 453 343 314 97 83 95 64 66 135 147
13 22 54 71 90 149 177 187 195 216 213 209 230 275 263 202 178 131 43 87 120 66 48 103 158 167 200 199 171 167 184 199 220 305 263 278 215 118 132 120 126 129 149
-10 40 81 121 162 194 226 222 280 314 258 210 238 250 256 216 154 123 98 119 131 197 232 188 202 210 149 209 248 189 270 241 153 138 211 87 83 162 108 95 83 100 86
-50 2 52 52 73 156 178 194 225 348 369 250 241 232 257 138 98 79 120 166 185 95 97 209 180 95 83 109 108 173 205 105 83 48 14 36 94 101 124 127 180 116 130
-44 38 131 126 72 141 261 335 67 114 300 220 160 211 162 135 70 78 36 104 64 57 76 85 154 165 157 248 102 72 117 111 94 103 92 89 94 117 118 141 140 99 107
74 97 116 129 128 113 106 169 143 104 44 13 -7 9 57 69 23 25 50 52 59 65 71 78 58 90 81 154 147 119 151 141 97 124 106 125 151 152 147 144 142 151 109
68 95 123 129 170 153 55 30 4 -14 -17 -10 -1 13 26 28 25 30 46 44 47 56 57 57 62 86 83 77 44 63 79 42 92 94 77 115 119 203 157 133 95 39 196
87 136 125 85 52 3 -8 -0 1 1 1 -4 7 17 27 33 36 51 52 48 50 59 64 71 79 82 69 73 92 112 123 116 91 65 70 77 70 73 79 73 88 110 97
57 36 41 35 18 3 -8 -13 -12 -14 -16 1 23 30 36 35 34 36 32 37 39 49 56 67 83 94 97 105 117 117 119 108 115 129 129 122 112 98 87 75 77 92 116
19 11 8 3 -9 -0 -5 -13 -15 -17 -23 -16 -5 5 12 18 26 29 34 27 23 24 27 21 20 31 38 59 87 99 106 114 124 137 147 143 133 142 153 153 148 134 131
17 17 23 22 17 -33 -12 -5 -5 -1 7 15 20 19 14 14 11 9 5 3 6 6 16 50 70 66 58 49 62 57 64 88 116 129 141 149 170 168 142 129 150 166 167
21 17 28 32 35 31 21 19 26 36 38 38 38 29 31 33 35 35 34 31 33 46 51 54 53 57 51 73 97 109 108 95 73 80 122 155 156 150 189 208 168 136 155
62 73 78 79 76 70 69 65 63 62 66 56 46 49 49 48 40 31 27 28 25 19 25 24 17 22 20 43 77 105 96 110 113 107 108 92 67 118 136 146 168 190 169
106 111 112 97 84 77 77 77 80 74 63 61 59 57 44 28 20 17 13 10 9 10 -1 -1 4 6 11 37 30 39 27 51 104 127 135 140 144 134 139 112 98 120 148
116 126 123 118 113 103 95 90 87 75 67 53 33 25 29 34 43 51 51 43 41 49 48 49 51 52 54 65 74 78 65 50 38 51 108 110 148 199 206 225 182 84 81
152 149 141 141 132 114 104 88 67 69 58 49 40 40 51 67 82 85 83 75 63 52 58 59 70 72 83 80 77 89 95 106 116 122 119 119 150 172 198 213 215 227 138
131 147 146 131 113 94 82 72 65 64 64 65 66 70 78 81 77 78 80 77 74 76 81 84 87 89 87 79 72 81 91 86 86 87 92 94 99 104 135 140 148 162 162
139 132 128 114 106 95 90 93 87 71 58 52 57 74 84 88 84 77 77 83 87 86 85 89 87 84 76 63 66 70 73 75 90 87 84 79 72 83 85 97 94 136 173
137 135 135 136 128 121 118 103 86 83 79 85 88 85 81 75 65 69 73 84 89 104 101 99 94 90 76 68 66 83 79 77 93 89 73 59 73 70 66 42 66 108 85
148 149 146 141 129 121 112 89 83 89 92 82 83 91 81 72 79 80 83 92 97 108 109 108 104 92 63 43 53 89 112 102 102 93 101 76 48 62 63 45 36 79 86
152 147 143 128 115 114 103 96 101 106 98 98 95 83 77 73 82 88 97 95 104 109 116 116 114 101 82 61 36 64 92 96 89 86 94 77 78 81 67 41 44 77 90
140 131 129 124 126 119 106 102 107 111 106 97 99 93 85 83 87 92 98 70 72 63 63 64 84 105 86 77 78 89 83 69 71 94 93 82 78 74 59 43 45 53 83
Wind_Speed
77 73 72 76 72 69 69 65 58 51 44 44 51 63 70 71 73 73 75 74 72 73 69 66 65 65 62 59 59 64 61 65 70 70 72 75 80 64 75 53 62 58 54
66 67 62 57 53 56 54 46 44 41 40 45 49 57 63 67 71 72 73 71 71 67 65 64 64 64 59 57 58 60 62 60 68 73 67 74 70 69 57 59 66 61 57
58 58 55 46 39 38 35 34 36 40 44 50 56 60 63 68 71 73 75 72 71 69 63 63 65 61 56 56 51 54 57 55 62 63 62 66 74 63 54 56 55 57 58
51 50 47 40 33 30 27 30 34 39 47 53 60 62 66 69 69 75 78 77 76 70 63 60 58 58 57 59 52 44 50 53 62 66 68 66 59 59 68 59 59 61 62
46 43 39 34 31 29 29 32 35 40 48 54 57 60 54 51 56 60 64 67 71 70 68 61 57 54 51 45 38 44 48 50 57 66 65 69 70 67 65 66 59 58 59
37 36 34 33 32 31 32 35 36 39 43 46 49 45 39 43 47 48 48 52 59 66 61 47 47 44 48 42 41 39 44 48 47 59 68 69 73 72 72 72 68 65 59
24 26 27 28 27 28 30 33 36 36 37 35 37 32 30 33 39 44 45 51 54 52 49 29 34 32 34 34 29 43 50 49 53 57 60 69 73 65 67 75 75 70 62
20 18 18 14 13 16 17 20 23 27 30 31 35 38 34 35 37 39 42 44 42 45 44 37 33 34 35 41 44 40 33 35 47 52 56 55 63 63 61 62 70 79 73
23 20 18 15 11 17 33 26 33 31 25 35 30 32 35 36 37 40 43 43 43 45 42 43 41 38 38 36 36 37 45 47 59 59 59 60 61 64 63 65 68 79 80
19 20 17 16 20 27 38 24 27 32 36 34 35 34 35 38 40 42 42 44 45 46 44 43 43 42 45 45 43 46 49 50 57 61 66 65 72 65 64 64 63 68 77
31 28 25 19 11 13 17 14 17 22 27 28 32 36 37 38 39 42 44 45 47 47 44 44 46 47 47 48 46 46 47 49 52 49 50 59 63 59 61 59 59 66 65
40 28 24 24 13 15 22 21 25 30 29 31 34 35 39 41 42 45 46 46 47 47 47 48 49 49 49 49 49 50 51 55 56 58 57 57 56 59 58 57 60 61 62
28 24 19 16 17 18 21 27 33 37 38 40 43 45 46 48 49 50 51 51 52 53 53 53 54 54 54 54 55 55 56 56 56 57 61 65 67 70 66 52 61 61 62
27 24 23 25 31 42 43 43 43 44 43 43 46 48 49 51 52 54 55 56 56 57 57 57 56 57 56 57 58 58 58 58 60 62 62 64 65 66 68 70 69 66 65
28 26 28 32 38 29 42 45 46 47 49 51 52 53 53 54 55 56 58 58 59 61 62 63 64 64 63 63 66 65 65 67 69 67 67 68 72 74 72 72 72 71 68
26 24 22 20 24 29 43 47 50 51 50 50 51 50 52 55 58 60 61 63 65 66 67 68 69 70 69 72 72 72 72 71 71 73 73 73 73 73 76 77 77 74 75
18 17 16 19 25 32 36 40 43 45 49 53 56 57 57 60 64 67 70 71 71 72 73 73 74 75 74 74 74 75 73 75 76 76 78 78 75 78 77 78 79 79 79
12 14 19 26 31 36 40 45 49 53 56 57 60 63 65 66 69 72 74 76 75 77 77 77 77 79 78 80 79 80 77 78 79 79 80 82 84 81 84 85 83 83 81
14 18 24 30 35 39 43 46 51 53 55 58 61 64 67 70 72 75 76 75 73 75 76 77 80 82 84 85 86 86 84 84 84 83 83 85 87 87 88 90 92 89 86
19 20 24 30 35 40 43 48 51 54 58 61 65 68 71 75 78 78 79 75 77 79 78 81 80 82 84 84 82 83 82 87 87 84 83 82 83 83 82 86 88 93 88
22 26 30 35 38 42 45 51 55 62 64 69 73 76 77 77 76 77 77 79 82 83 84 85 84 84 82 83 82 81 81 85 87 86 86 82 81 82 83 85 86 89 94
28 30 35 39 42 46 51 61 68 66 69 73 76 78 78 78 78 82 83 84 85 87 88 89 89 83 79 80 80 81 80 81 84 84 81 78 78 78 80 81 85 89 96
33 35 41 45 47 50 56 66 67 69 73 75 77 79 80 81 80 83 87 88 87 87 89 89 89 89 83 81 83 82 80 77 74 71 72 75 76 77 77 79 83 88 88
38 38 44 50 56 57 62 67 71 72 74 80 82 83 85 85 83 82 83 85 86 89 90 91 91 89 85 80 75 73 70 69 68 70 70 69 72 76 77 75 73 71 74
37 41 48 55 59 60 64 66 68 70 76 79 81 82 82 85 86 85 86 87 84 83 88 87 87 88 87 78 75 75 72 69 68 71 69 72 71 72 69 69 68 68 68
43 47 52 56 61 66 69 69 70 72 78 82 81 81 82 83 87 88 90 82 83 82 80 80 82 81 80 82 80 79 80 80 77 73 73 72 70 67 64 64 66 65 66
Wind_Direction
308 306 301 295 283 274 265 265 268 270 269 276 279 277 278 281 282 284 285 286 287 288 286 284 281 280 275 269 266 262 261 259 261 261 263 270 267 272 268 277 273 275 277
319 318 316 309 291 274 263 261 266 267 273 280 284 284 285 285 284 285 287 287 287 289 287 284 282 283 276 270 264 256 260 258 254 256 260 264 268 270 268 271 270 272 275
327 326 324 321 309 280 263 266 270 278 280 284 286 287 288 289 286 287 287 287 287 288 286 286 284 282 275 270 263 253 248 251 256 245 255 263 264 272 272 268 270 272 273
326 324 327 320 305 291 282 284 280 286 290 290 288 288 287 287 289 288 288 287 287 288 286 285 286 288 279 275 260 247 245 248 249 252 254 258 273 272 276 276 273 270 271
318 309 314 313 305 297 294 296 293 295 298 297 296 290 289 293 298 300 296 291 290 289 288 282 283 281 280 287 277 264 258 254 256 249 259 258 263 267 275 275 281 278 274
299 300 303 306 305 299 296 298 302 302 306 307 304 300 298 301 304 308 313 312 307 297 295 284 282 283 276 278 269 267 264 258 257 260 261 262 263 263 268 273 276 280 284
259 278 296 307 308 303 301 298 299 299 301 314 319 327 323 320 314 313 311 315 324 322 313 300 296 299 286 285 288 266 269 260 265 259 262 265 265 271 273 276 277 278 282
177 199 206 205 218 263 257 269 292 295 299 330 305 329 309 336 332 325 319 318 324 330 333 313 320 319 301 291 284 285 285 271 267 268 268 271 272 273 273 272 277 280 279
194 215 215 233 230 320 4 348 16 360 337 4 334 334 334 336 330 333 339 330 326 327 328 331 324 325 325 315 311 299 289 279 273 272 271 274 277 276 276 275 277 282 281
225 230 248 283 319 342 7 339 355 354 0 359 352 345 343 347 346 345 339 340 337 340 327 323 325 326 322 314 316 308 303 296 283 276 275 278 275 280 279 279 278 278 283
151 151 154 166 214 295 323 312 317 330 337 336 343 349 347 346 345 348 345 343 345 343 333 329 327 333 327 324 322 316 314 310 305 306 291 286 282 280 279 279 279 284 287
139 152 155 157 212 292 324 319 324 333 329 332 336 336 340 341 341 344 343 341 341 340 335 333 334 335 329 327 329 322 313 307 304 302 302 302 299 295 296 295 287 288 288
168 181 203 243 281 286 298 316 326 335 332 336 344 344 345 347 344 345 343 342 340 342 339 338 336 335 332 328 326 324 319 315 313 310 305 301 298 295 296 300 294 292 291
194 211 249 285 322 24 12 353 350 347 332 328 335 340 342 342 341 340 340 338 338 335 335 337 337 334 333 331 328 326 325 322 317 313 311 308 304 302 300 295 293 291 289
123 120 84 47 19 304 338 341 333 330 336 337 337 336 339 341 343 343 343 344 342 338 335 332 330 329 328 326 323 321 319 316 313 312 311 307 304 300 299 297 294 290 289
155 154 133 110 68 44 356 344 343 351 358 359 357 357 353 348 346 343 342 339 337 335 333 330 329 326 325 322 320 319 317 316 314 311 310 310 308 304 300 298 294 291 287
130 110 88 63 37 21 14 7 5 3 357 352 348 347 346 342 339 336 334 333 331 331 329 327 326 323 322 321 320 318 316 314 312 310 308 306 306 305 303 298 295 292 288
85 58 34 18 12 5 0 355 351 347 344 343 341 339 337 336 333 332 330 329 329 327 326 326 325 323 322 321 319 317 315 314 312 311 310 306 304 303 300 298 294 289 288
42 27 14 5 359 355 351 349 346 345 344 342 340 339 338 335 333 331 330 330 330 328 327 326 324 322 320 319 317 316 315 313 312 312 311 309 305 302 300 296 293 289 285
25 18 10 3 357 353 350 347 345 343 341 340 338 337 335 333 331 330 329 330 328 326 325 323 323 322 321 321 320 318 316 313 312 313 312 311 308 306 302 297 294 289 286
13 6 359 354 352 351 348 344 342 338 338 336 334 333 333 332 331 330 329 328 326 324 323 322 322 321 321 320 319 318 316 313 312 312 312 312 311 308 304 299 293 287 283
1 360 354 352 351 349 346 340 337 339 337 335 333 332 332 331 330 328 327 326 324 322 321 320 319 320 321 321 319 318 317 315 312 311 313 313 312 310 308 303 294 288 281
353 355 350 348 349 347 344 338 338 338 336 334 333 332 331 330 329 327 325 324 324 322 321 320 318 319 320 320 319 318 317 316 315 314 313 312 312 309 306 305 300 290 282
349 352 346 344 341 343 341 339 337 337 335 332 331 331 329 329 329 329 327 326 324 323 321 320 319 319 319 320 320 320 319 317 315 313 312 310 307 307 307 306 304 300 289
352 351 347 343 342 342 342 341 340 339 336 335 334 333 332 330 329 329 328 326 326 324 322 321 320 320 319 320 320 319 317 315 313 311 309 306 305 307 309 308 306 304 296
348 346 345 345 343 342 341 342 342 340 337 336 336 336 334 333 331 330 329 331 329 329 327 325 323 322 321 321 320 317 313 310 309 307 304 303 303 304 309 309 306 305 299